This is the latest recevied weather packets stored in our database for station/object DPX206-15. If no packets are shown the sender has not sent any weather packets the latest 10 day(s).
| Time | Temp. | Humidity | Pressure | Rain* | Wind** | Luminosity | Snow |
|---|---|---|---|---|---|---|---|
| 1777566362 | 14.44° C | 43% | 1030.9 hPa | 0 mm | - | 56 W/m² | - |
| 1777565611 | 14.44° C | 43% | 1031.3 hPa | 0 mm | - | 116 W/m² | - |
| 1777564861 | 15° C | 43% | 1031 hPa | 0 mm | - | 96 W/m² | - |
| 1777564111 | 15° C | 42% | 1031.1 hPa | 0 mm | - | 213 W/m² | - |
| 1777563360 | 15° C | 41% | 1030.8 hPa | 0 mm | - | 248 W/m² | - |
| 1777562610 | 15.56° C | 41% | 1031.2 hPa | 0 mm | - | 275 W/m² | - |
| 1777561859 | 15.56° C | 40% | 1031.2 hPa | 0 mm | - | 323 W/m² | - |
| 1777561109 | 15.56° C | 40% | 1031.4 hPa | 0 mm | - | 64 W/m² | - |
| 1777560359 | 15.56° C | 39% | 1031.2 hPa | 0 mm | - | 63 W/m² | - |
| 1777559608 | 16.11° C | 39% | 1031.2 hPa | 0 mm | - | 64 W/m² | - |
| 1777558858 | 16.11° C | 38% | 1031.1 hPa | 0 mm | - | 562 W/m² | - |
| 1777558108 | 16.11° C | 39% | 1031.2 hPa | 0 mm | - | 571 W/m² | - |
| 1777557358 | 16.11° C | 39% | 1031.2 hPa | 0 mm | - | 565 W/m² | - |
| 1777556607 | 16.11° C | 38% | 1031.3 hPa | 0 mm | - | 598 W/m² | - |
| 1777555857 | 16.11° C | 38% | 1031.5 hPa | 0 mm | - | 606 W/m² | - |
| 1777555107 | 16.67° C | 38% | 1031.5 hPa | 0 mm | - | 624 W/m² | - |
| 1777554356 | 16.11° C | 38% | 1032.1 hPa | 0 mm | - | 609 W/m² | - |
| 1777553606 | 16.11° C | 37% | 1031.9 hPa | 0 mm | - | 669 W/m² | - |
| 1777552856 | 16.11° C | 35% | 1032.1 hPa | 0 mm | - | 337 W/m² | - |
| 1777552106 | 16.67° C | 35% | 1031.9 hPa | 0 mm | - | 715 W/m² | - |
| 1777551355 | 16.11° C | 35% | 1032.1 hPa | 0 mm | - | 716 W/m² | - |
| 1777550605 | 16.11° C | 35% | 1032.1 hPa | 0 mm | - | 738 W/m² | - |
| 1777549854 | 16.11° C | 34% | 1032.3 hPa | 0 mm | - | 737 W/m² | - |
| 1777549104 | 16.11° C | 35% | 1032.3 hPa | 0 mm | - | 768 W/m² | - |
| 1777548354 | 16.11° C | 34% | 1032.7 hPa | 0 mm | - | 778 W/m² | - |
* Rain latest hour (hover to see other rain measurements)
** Current wind speed in m/s (hover to see current wind gust speed)